Regional Weather Roundup
Issued by NWS Charleston, WV

Home | Current Version | Previous Version | Text Only | Print | Product List | Glossary On
Versions: 1 2 3 4 5 6 7 8 9 10 11 12 13 14 15 16 17 18 19 20 21 22 23 24 25 26 27 28 29 30 31 32 33 34 35 36 37 38 39 40 41 42 43 44 45 46 47 48
000
ASUS41 KRLX 301810
RWRRLX
West Virginia Regional Weather Roundup
National Weather Service Charleston WV
200 PM EDT THU JUL 30 2015

Note: "fair" indicates few or no clouds below 12,000 feet with no
significant weather and/or obstructions to visibility.

WVZ003-301900-
Northern Panhandle of West Virginia

CITY           SKY/WX    TMP DP  RH WIND       PRES   REMARKS
WHEELING       SUNNY     84  53  34 NW13      30.00F
$$

WVZ009-301900-
Northwest West Virginia

CITY           SKY/WX    TMP DP  RH WIND       PRES   REMARKS
PARKERSBURG    SUNNY     86  57  37 W10G18    30.04S
$$

WVZ006-301900-
Western West Virginia

CITY           SKY/WX    TMP DP  RH WIND       PRES   REMARKS
HUNTINGTON     PTSUNNY   84  61  45 W7        30.04S
$$

WVZ015-301900-
West Central West Virginia

CITY           SKY/WX    TMP DP  RH WIND       PRES   REMARKS
CHARLESTON     MOSUNNY   85  65  51 VRB5      30.03S
$$

WVZ022-031-301900-
North Central West Virginia

CITY           SKY/WX    TMP DP  RH WIND       PRES   REMARKS
CLARKSBURG     MOSUNNY   84  64  50 W10       30.00S
MORGANTOWN     MOSUNNY   86  58  38 VRB5G16   30.00F
$$

WVZ025-035-042-045-301900-
Southern West Virginia

CITY           SKY/WX    TMP DP  RH WIND       PRES   REMARKS
BECKLEY        MOSUNNY   82  71  69 NW10      30.09F
LOGAN          PTSUNNY   82  64  54 N5        30.04S
BLUEFIELD      MOSUNNY   83  68  60 W8        30.12F
LEWISBURG      PTSUNNY   85  67  55 W7        30.06F
$$

WVZ047-301900-
Northern Mountains of West Virginia

CITY           SKY/WX    TMP DP  RH WIND       PRES   REMARKS
ELKINS         PTSUNNY   82  68  62 NW10      30.04F
$$

WVZ052-301900-
Eastern Panhandle of West Virginia

CITY           SKY/WX    TMP DP  RH WIND       PRES   REMARKS
MARTINSBURG    CLOUDY    82  75  79 VRB7      29.91F
PETERSBURG     PTSUNNY  N/A N/A N/A W5        29.95F
$$


USA.gov is the U.S. government's official web portal to all federal, state and local government web resources and services.